Tracking 31011 objects as of 12-Jul-2025
HD Live streaming from Space Station
objects crossing your sky now

CZ-6A DEB

Track CZ-6A DEB now!
10-day predictions


NORAD ID: 54521
Int'l Code: 2022-151JZ
Perigee: 811.0 km
Apogee: 1,012.3 km
Inclination: 98.8 °
Period: 103.1 minutes
Semi major axis: 7282 km
RCS: Unknown
Launch date: November 11, 2022
Source: People's Republic of China (PRC)
Launch site: Taiyaun Space Center, China (TSC)

Note: This is SATELLITE DEBRIS
Your satellite tracking list
Your tracking list is empty




NASA's NSSDC Master Catalog

Two Line Element Set (TLE):
1 54521U 22151JZ  25192.41962773  .00000377  00000-0  27851-3 0  9999
2 54521  98.8394 170.1459 0138198 309.5398  49.3618 13.96923687135468
Source of the keplerian elements: AFSPC